Content
SEND FEEDBACK

Daily
Averages
Monthly
Summary
United States of America

AGAT, GUAM


Home > North America > United States > Guam
Elevation: 110 meters     Latitude: 13 33N     Longitude: 144 50E

WEATHER
 
SELECT A DAY
Number of Records: 208,919;   Date Range: 1/1/95 - 7/23/14
 
SHARE

PRINT THIS DATA

[ ← Previous Day ]
WEATHER ALMANAC - 17 MAY, 2013
[ Next Day → ]
[ °F ]   °C
Weather ElementAverageHighLow
Temperature30.2 °C33 °C (12:04 pm)27.8 °C (4:54 am)
Dewpoint23.8 °C25 °C (1:54 am)22.8 °C (3:54 pm)
Humidity68.9 %82 % (1:54 am)55 % (12:04 pm)
Barometer891 hPa1013.9 hPa (9:54 pm) (7:00 pm)
Wind Speed15.3 km/h25.9 km/h (12:04 pm)
Wind Gust38.9 km/h (11:24 am)
Weather ElementAverage
Visibility16.1 km
Wind DirectionENE (79.6 °)

Weather ElementTotal
Precipitation---
Cooling Degree Days12.1 (Base 18.3)
Growing Degree Days20.4 (Base 10)
Averaged from 25 records on 17 May, 2013
WEATHER CONDITIONS BREAKOUT
WIND DIRECTION BREAKOUT
WEATHER BY HOUR - 17 MAY, 2013
[ °F ]   °C
Local TimeTemperatureDewpointHumidityBarometerVisibilityWind DirectionWind SpeedGust SpeedPrecipitationEventsConditions
1:54 AM28.3 °C25 °C82 %16.1 kmEast (80°)7.4 km/hPartly Cloudy
2:54 AM28.3 °C24.4 °C79 %1011.2 hPa16.1 kmENE (70°)9.3 km/hPartly Cloudy
3:54 AM28.3 °C24.4 °C79 %1010.8 hPa16.1 kmEast (80°)11.1 km/hClear
4:54 AM27.8 °C24.4 °C82 %16.1 kmEast (80°)7.4 km/hPartly Cloudy
5:54 AM27.8 °C23.9 °C79 %16.1 kmEast (80°)7.4 km/hClear
6:54 AM28.9 °C24.4 °C76 %1011.2 hPa16.1 kmENE (60°)11.1 km/hScattered Clouds
7:54 AM30 °C24.4 °C72 %1011.5 hPa16.1 kmENE (70°)18.5 km/hPartly Cloudy
8:54 AM31.1 °C23.9 °C65 %1013.5 hPa16.1 kmENE (70°)18.5 km/hScattered Clouds
9:54 AM31.1 °C24.4 °C67 %1013.5 hPa16.1 kmEast (80°)22.2 km/h0 mmScattered Clouds
10:54 AM31.7 °C23.9 °C63 %1013.2 hPa16.1 kmEast (80°)16.7 km/hPartly Cloudy
11:24 AM31 °C24 °C66 %1013.5 hPa16.1 kmEast (90°)20.4 km/h38.9 km/hMostly Cloudy
11:54 AM32.2 °C23.3 °C59 %1012.5 hPa16.1 kmENE (70°)24.1 km/h35.2 km/hMostly Cloudy
12:04 PM33 °C23 °C55 %1013.2 hPa16.1 kmENE (70°)25.9 km/hMostly Cloudy
12:54 PM32.8 °C23.3 °C57 %1011.9 hPa16.1 kmEast (90°)20.4 km/h35.2 km/hMostly Cloudy
1:54 PM32.2 °C23.3 °C59 %1011.2 hPa16.1 kmEast (90°)22.2 km/hScattered Clouds
2:54 PM31.7 °C23.3 °C61 %1010.8 hPa16.1 kmEast (90°)22.2 km/h33.3 km/hScattered Clouds
3:54 PM31.7 °C22.8 °C59 %1010.8 hPa16.1 kmESE (110°)20.4 km/hScattered Clouds
4:54 PM31.7 °C22.8 °C59 %1010.8 hPa16.1 kmEast (90°)16.7 km/hPartly Cloudy
5:54 PM30.6 °C23.3 °C65 %1011.5 hPa16.1 kmEast (90°)16.7 km/hPartly Cloudy
6:54 PM30 °C23.3 °C67 %1012.5 hPa16.1 kmENE (60°)13 km/hPartly Cloudy
7:54 PM29.4 °C23.9 °C72 %1012.9 hPa16.1 kmEast (80°)9.3 km/hScattered Clouds
8:54 PM28.9 °C23.9 °C74 %1013.2 hPa16.1 kmENE (70°)11.1 km/h0 mmScattered Clouds
9:54 PM28.9 °C23.9 °C74 %1013.9 hPa16.1 kmENE (70°)11.1 km/hScattered Clouds
10:54 PM28.3 °C23.9 °C77 %1013.9 hPa16.1 kmEast (80°)11.1 km/h0 mmScattered Clouds
11:54 PM28.3 °C23.3 °C74 %1013.2 hPa16.1 kmEast (90°)7.4 km/hPartly Cloudy
Hourly data recorded from PGUM, located 0 kilometers away from Agat, Guam







STORIES FROM OUR PARTNERS